Regional Weather Roundup
Issued by NWS Northern Indiana

Home | Current Version | Previous Version | Graphics & Text | Print | Product List | Glossary On
Versions: 1 2 3 4 5 6 7 8 9 10 11 12 13 14 15 16 17 18 19 20 21 22 23 24 25 26 27 28 29 30 31 32 33 34 35 36 37 38 39 40 41 42 43 44 45 46 47 48 49 50
000
ASUS43 KIWX 041810
RWRIWX

KIWX WEATHER ROUNDUP
NATIONAL WEATHER SERVICE NORTHERN INDIANA
200 PM EDT WED MAY 04 2016

NOTE: "FAIR" INDICATES FEW OR NO CLOUDS BELOW 12,000 FEET WITH NO
SIGNIFICANT WEATHER AND/OR OBSTRUCTIONS TO VISIBILITY.

* THESE STATIONS ARE NOT UNDER NWS QUALITY CONTROL. THEY ALSO MAY NOT
  REPORT WEATHER SUCH AS PRECIPITATION OR FOG.

INZ001>027-041900-
NORTHERN INDIANA

CITY           SKY/WX    TMP DP  RH WIND       PRES   REMARKS
GARY*          CLOUDY    50  45  81 N23G37    29.79S
VALPARAISO     CLOUDY    47  36  65 N16G31    29.76S
6HR MIN TEMP:  42; 6HR MAX TEMP:  47;

MICHIGAN CITY* CLOUDY    45  37  76 N21G26    29.76S
LAPORTE*       CLOUDY    46  40  81 N21G35    29.75S
6HR MIN TEMP:  43; 6HR MAX TEMP:  46;

KNOX*          CLOUDY    45  34  65 N22G29    29.75R
SOUTH BEND     CLOUDY    43  38  82 N23G29    29.71R
6HR MIN TEMP:  42; 6HR MAX TEMP:  46; 6HR PCP: TRACE;

GOSHEN         CLOUDY    46  40  79 NW18G26   29.66S
6HR MIN TEMP:  45; 6HR MAX TEMP:  50; 6HR PCP:  0.12;

MONTICELLO*    MOSUNNY   52  39  59 NW22G30   29.74S
6HR MIN TEMP:  46; 6HR MAX TEMP:  53; 6HR PCP:  0.01;

LOGANSPORT*    CLOUDY    46  39  76 N20G28    29.74R
ROCHESTER*     CLOUDY    48  43  81 NW17G29   29.71S
WARSAW*        CLOUDY    45  41  87 NW20G25   29.68S
ANGOLA*        CLOUDY    46  43  87 NW17      29.61S
FORT WAYNE     PTSUNNY   49  41  74 W20G30    29.65R
6HR MIN TEMP:  48; 6HR MAX TEMP:  52; 6HR PCP:  0.11;

HUNTINGTON*    CLOUDY    48  41  75 NW13G22   29.67S
                                      6HR PCP:  0.08;

PERU/GRISSOM   CLOUDY    48  40  73 NW16      29.70R
6HR MIN TEMP:  47; 6HR MAX TEMP:  51; 6HR PCP:  0.03;

MARION*        CLOUDY    48  42  78 NW22      29.71R
6HR MIN TEMP:  -1; 6HR MAX TEMP:  82; 6HR PCP:  0.06;


$$
INZ028>050-041900-
CENTRAL INDIANA

CITY           SKY/WX    TMP DP  RH WIND       PRES   REMARKS
LAFAYETTE      CLOUDY    53  41  63 N18       29.74F
6HR MIN TEMP:  49; 6HR MAX TEMP:  53; 6HR PCP:  0.03;

KOKOMO*        CLOUDY    48  37  66 NW17G26   29.71S
6HR MIN TEMP:  48; 6HR MAX TEMP:  52; 6HR PCP:  0.08;

MUNCIE*        PTSUNNY   54  43  66 NW20      29.67R
6HR MIN TEMP:  51; 6HR MAX TEMP:  56; 6HR PCP:  0.13;

INDIANAPOLIS   PTSUNNY   56  41  57 N18G28    29.70R
6HR MIN TEMP:  50; 6HR MAX TEMP:  57; 6HR PCP:  0.05;


$$
MIZ043>046-050>051-056>058-064>065-071>073-077>080-041900-
SOUTHWEST LOWER MICHIGAN

CITY           SKY/WX    TMP DP  RH WIND       PRES   REMARKS
BATTLE CREEK   LGT RAIN  45  41  86 NW20G29   29.61R
6HR MIN TEMP:  45; 6HR MAX TEMP:  50;

BENTON HARBOR  CLOUDY    43  37  79 N9G32     29.72R
6HR MIN TEMP:  43; 6HR MAX TEMP:  44; 6HR PCP: TRACE;

COLDWATER*     CLOUDY    47  41  80 NW14G23   29.61R
6HR MIN TEMP:  46; 6HR MAX TEMP:  51;

HILLSDALE*     CLOUDY    47  41  81 W17       29.57S
6HR MIN TEMP:  46; 6HR MAX TEMP:  52;

HOLLAND        LGT RAIN N/A N/A N/A NW15G29   29.67S
                                      6HR PCP:  0.13;

GRAND RAPIDS   RAIN      45  40  82 N17G28    29.62S
6HR MIN TEMP:  45; 6HR MAX TEMP:  49; 6HR PCP:  0.57;

KALAMAZOO      LGT RAIN  45  40  82 NW14      29.63S
6HR MIN TEMP:  45; 6HR MAX TEMP:  50; 6HR PCP:  0.26;

STURGIS*       DRIZZLE   44  41  89 NW8G20    29.62S
6HR MIN TEMP:  44; 6HR MAX TEMP:  48; 6HR PCP:  0.13;

THREE RIVERS*  LGT RAIN  47  42  84 NW15G22   29.65R

$$
OHZ001>008-015>018-024>025-041900-
NORTHWEST OHIO

CITY           SKY/WX    TMP DP  RH WIND       PRES   REMARKS
WAUSEON*         N/A     50 N/A N/A W18       29.58R
DEFIANCE       CLOUDY    51  43  74 NW12      29.60R
6HR MIN TEMP:  50; 6HR MAX TEMP:  56; 6HR PCP:  0.10;

FINDLAY        CLOUDY    60  46  59 SW16G24   29.58F
6HR MIN TEMP:  51; 6HR MAX TEMP:  60; 6HR PCP: TRACE;

TOLEDO EXPRESS CLOUDY    54  46  74 SW18G26   29.56S
6HR MIN TEMP:  50; 6HR MAX TEMP:  58; 6HR PCP:  0.02;

TOLEDO METCALF CLOUDY    57  49  74 S15G22    29.58F
6HR MIN TEMP:  51; 6HR MAX TEMP:  59; 6HR PCP:  0.05;

LIMA           CLOUDY    49  47  93 W9        29.61R
6HR MIN TEMP:  49; 6HR MAX TEMP:  57; 6HR PCP:  0.05;


$$
AND FOR LAKE MICHIGAN COASTAL AND OPEN LAKE BUOY OBSERVATIONS

STATION/POSITION TEMP    WIND        PRES    VSBY  WAVE
                 AIR SEA DIR/SP/G                  HT/PER
                 (F)     (DEG/KT/KT) (MB)    (MI)  (FT/S)
CALUMET HARBOR    47     340/ 18/ 23 1008.1R
MICHIGAN CITY     43     320/ 29/ 31   N/A
BURNS HARBOR      45     340/ 19     1008.5R
SAINT JOSEPH      43     330/ 28/ 35 1007.5R
SOUTH LAKE BUOY   41 40  360/ 25/ 31 1007.1R         8/ 7
4 MI NW BRIDGMAN  42 47                N/A          10/ 7

$$
&&



USA.gov is the U.S. government's official web portal to all federal, state and local government web resources and services.